Regional Weather Roundup
Issued by NWS

Home | Current Version | Previous Version | Graphics & Text | Print | Product List | Glossary On
Versions: 1 2 3 4 5 6 7 8 9 10 11 12 13 14 15 16 17 18 19 20 21 22 23 24 25 26 27 28 29 30 31 32 33 34 35 36 37 38 39 40 41 42 43 44 45 46 47 48 49 50
000
ASUS45 KBOU 230007
RWRCO

WEATHER ROUNDUP FOR COLORADO
NATIONAL WEATHER SERVICE DENVER/BOULDER CO
600 PM MDT FRI AUG 22 2014

NOTE: "FAIR" INDICATES FEW OR NO CLOUDS BELOW 12000 FEET WITH NO
SIGNIFICANT WEATHER AND/OR OBSTRUCTIONS TO VISIBILITY.

COZ001>005-013-030-031-230100-
...NORTHWEST COLORADO...

CITY           SKY/WX    TMP DP  RH WIND       PRES   REMARKS
CRAIG          CLOUDY    65  54  67 E3        30.08F
HAYDEN         CLOUDY    66  46  48 CALM      30.09F
MEEKER         TSTM      62  52  69 NW16G25   30.08R
MOUNT WERNER   NOT AVBL
STEAMBOAT SPGS CLOUDY    65  48  54 S5        30.10S
WALDEN         CLOUDY    61  41  48 S8        30.18F
$$

COZ006>008-011-230100-
...WEST CENTRAL VALLEYS...

CITY           SKY/WX    TMP DP  RH WIND       PRES   REMARKS
GRAND JUNCTION TSTM      66  59  78 S15G25    30.03R
MONTROSE       CLOUDY    65  57  75 S12       30.13R
EAGLE          CLOUDY    70  52  52 NE5       30.12
RIFLE          CLOUDY    66  54  65 W12       30.04S
DELTA          RAIN      73  51  45 SE7       30.07
NUCLA          CLOUDY    61  52  72 SE7       30.17S
$$

COZ017>023-064>068-230100-
...SOUTHWEST COLORADO...

CITY           SKY/WX    TMP DP  RH WIND       PRES   REMARKS
DURANGO        RAIN      53  52  96 NW13      30.25S FOG
CORTEZ         MOSUNNY   60  55  83 E16       30.15F
PAGOSA SPRINGS CLOUDY    62  46  57 S7        30.26F
TELLURIDE      CLOUDY    48  46  93 SE3       30.35R
WOLF CREEK PAS NOT AVBL
$$

COZ009-010-012-014-032>034-037-058>063-230100-
...CENTRAL COLORADO...

CITY           SKY/WX    TMP DP  RH WIND       PRES   REMARKS
ASPEN          CLOUDY    65  42  43 S12       30.17F
BUENA VISTA    CLOUDY    57  46  67 SE8       30.24F
COPPER MTN     CLOUDY    50  37  62 S20       30.46F
BERTHOUD PASS  PTSUNNY   39  37  93 MISG      30.49F FOG
COTTONWOOD PAS CLOUDY    54  46  76 CALM      30.35F
GUNNISON       CLOUDY    64  45  48 E12       30.21F
KREMMLING      CLOUDY    66  46  48 CALM      30.16S
LEADVILLE      CLOUDY    49  44  83 S12       30.33S
SALIDA         CLOUDY    58  52  80 E6        30.29F
SUNLIGHT       CLOUDY    55  46  71 S3        30.39S
WILKERSON PASS NOT AVBL
$$

COZ069>075-230100-
...SAN LUIS VALLEY/SANGRE DE CRISTO MOUNTAINS...

CITY           SKY/WX    TMP DP  RH WIND       PRES   REMARKS
ALAMOSA        CLOUDY    54  49  83 CALM      30.25F
LA VETA PASS   NOT AVBL
SAGUACHE       CLOUDY    52  50  93 CALM      30.28F
$$

COZ035-036-038>040-230100-
...NORTHERN COLORADO FRONT RANGE...

CITY           SKY/WX    TMP DP  RH WIND       PRES   REMARKS
DENVER INTL AP LGT RAIN  64  59  83 E14       30.07F
DMNS CITY PARK   N/A     67  59  74 E9        30.05F
AURORA         PTSUNNY   63  58  84 E12       30.09F
FRONT RANGE AP PTSUNNY   64  63  94 E14       30.09F
ERIE MUNI ARPT CLOUDY    69  60  75 E9        30.05F
BOULDER MUN AP CLOUDY    68  57  68 CALM      30.06F
CENTENNIAL     CLOUDY    67  55  65 E8        30.08F
BROOMFIELD     LGT RAIN  68  54  60 CALM      30.09
FORT COLLINS   CLOUDY    66  57  72 SE6       30.07S
LONGMONT       CLOUDY    69  59  69 NW5       30.06F
$$

COZ041-046-047-076>085-087-088-230100-
...PIKES PEAK/PALMER DIVIDE AND SOUTHERN FOOTHILLS...

CITY           SKY/WX    TMP DP  RH WIND       PRES   REMARKS
COLO. SPRINGS  CLOUDY    72  47  40 S8        30.10F
A. F. ACADEMY  CLOUDY    69  51  53 VRB3      30.12F
ELLICOTT       LGT RAIN  65  54  67 CALM      30.10S
FALCON         LGT RAIN  66  49  54 SW7       30.16F
FORT CARSON    CLOUDY    72  46  40 SW8       30.06F
LIMON          TSTM      67  59  75 NE17      30.05F
MONUMENT HILL  CLOUDY    61  55  82 NE5       30.17F
TRINIDAD       MOSUNNY   68  57  68 N8        30.09F
$$

COZ042>045-048>051-090-091-230100-
...NORTHEAST COLORADO...

CITY           SKY/WX    TMP DP  RH WIND       PRES   REMARKS
GREELEY ARPT   CLOUDY    64  55  72 SE16      30.05F
AKRON          LGT RAIN  66  62  87 N13       30.06F
BURLINGTON     TSTM      66  62  87 SE22G31   30.01R FOG
WRAY             N/A     78  61  57 NE17      29.99R
STERLING       LGT RAIN  68  64  88 NW12      30.04F
HOLYOKE        NOT AVBL
FORT MORGAN    CLOUDY    60  58  92 N3        30.09F
$$

COZ086-089-092>099-230100-
...SOUTHEAST COLORADO...

CITY           SKY/WX    TMP DP  RH WIND       PRES   REMARKS
PUEBLO         CLOUDY    75  52  44 NW20G28   30.00F
LA JUNTA       CLOUDY    69  64  84 W13       29.96F
LAMAR          CLOUDY    75  60  59 NW12G24   29.93R THUNDER
SPRINGFIELD      N/A     78  61  55 W13G24    29.95R
$$



USA.gov is the U.S. government's official web portal to all federal, state and local government web resources and services.